| time (UTC) | temp C | wind direction | speed KPH | gust KPH | rain 1hr cm | rain 24hr cm | rain mn cm | humidity % | barometer mb |
| 20260505065503 | 6 | 0 | 0.0 | 0.0 | 0.00 | 0.00 | 0.00 | 53 | 1027.1 |
| 20260505065003 | 6 | 0 | 0.0 | 0.0 | 0.00 | 0.00 | 0.00 | 52 | 1027.0 |
| 20260505064503 | 7 | 91 | 0.0 | 6.4 | 0.00 | 0.00 | 0.00 | 51 | 1027.1 |
| 20260505064003 | 7 | 63 | 1.6 | 6.4 | 0.00 | 0.00 | 0.00 | 46 | 1027.0 |
| 20260505063718 | 7 | 39 | 1.6 | 6.4 | 0.00 | 0.00 | 0.00 | 46 | 1027.0 |
| 20260505063221 | 7 | 246 | 1.6 | 6.4 | 0.00 | 0.00 | 0.00 | 41 | 1027.0 |
| 20260505062503 | 7 | 299 | 1.6 | 4.8 | 0.00 | 0.00 | 0.00 | 40 | 1026.9 |
| 20260505062003 | 7 | 326 | 3.2 | 14.5 | 0.00 | 0.00 | 0.00 | 40 | 1026.8 |
| 20260505061503 | 7 | 318 | 3.2 | 14.5 | 0.00 | 0.00 | 0.00 | 39 | 1027.1 |
| 20260505061003 | 7 | 313 | 3.2 | 11.3 | 0.00 | 0.00 | 0.00 | 39 | 1027.1 |
| 20260505060503 | 7 | 325 | 3.2 | 14.5 | 0.00 | 0.00 | 0.00 | 39 | 1027.1 |
| 20260505060219 | 7 | 326 | 3.2 | 14.5 | 0.00 | 0.00 | 0.00 | 39 | 1027.1 |
| 20260505055717 | 7 | 327 | 3.2 | 14.5 | 0.00 | 0.00 | 0.00 | 40 | 1027.0 |
| 20260505055220 | 7 | 316 | 3.2 | 14.5 | 0.00 | 0.00 | 0.00 | 40 | 1027.0 |
| 20260505054503 | 8 | 315 | 6.4 | 19.3 | 0.00 | 0.00 | 0.00 | 40 | 1027.2 |
| 20260505054003 | 8 | 318 | 8.0 | 22.5 | 0.00 | 0.00 | 0.00 | 40 | 1027.2 |
| 20260505053503 | 8 | 321 | 9.7 | 22.5 | 0.00 | 0.00 | 0.00 | 40 | 1027.0 |
| 20260505053003 | 8 | 321 | 9.7 | 20.9 | 0.00 | 0.00 | 0.00 | 41 | 1027.0 |
| 20260505052503 | 8 | 309 | 11.3 | 24.1 | 0.00 | 0.00 | 0.00 | 42 | 1027.0 |
| 20260505052003 | 8 | 311 | 11.3 | 24.1 | 0.00 | 0.00 | 0.00 | 42 | 1027.0 |
| 20260505051503 | 8 | 311 | 9.7 | 19.3 | 0.00 | 0.00 | 0.00 | 43 | 1027.0 |
| 20260505051003 | 8 | 309 | 8.0 | 25.7 | 0.00 | 0.00 | 0.00 | 44 | 1026.9 |
| 20260505050503 | 8 | 316 | 9.7 | 25.7 | 0.00 | 0.00 | 0.00 | 44 | 1027.0 |
| 20260505041503 | 8 | 320 | 11.3 | 22.5 | 0.00 | 0.00 | 0.00 | 48 | 1026.9 |
| 20260505041003 | 8 | 319 | 9.7 | 27.4 | 0.00 | 0.00 | 0.00 | 48 | 1026.8 |
| 20260505040503 | 8 | 313 | 9.7 | 27.4 | 0.00 | 0.00 | 0.00 | 48 | 1026.8 |
| 20260505040220 | 8 | 310 | 9.7 | 27.4 | 0.00 | 0.00 | 0.00 | 48 | 1026.7 |
| 20260505035718 | 8 | 278 | 6.4 | 20.9 | 0.00 | 0.00 | 0.00 | 48 | 1026.6 |
| 20260505035003 | 8 | 298 | 6.4 | 33.8 | 0.00 | 0.00 | 0.00 | 47 | 1026.6 |
| 20260505034503 | 8 | 315 | 9.7 | 33.8 | 0.00 | 0.00 | 0.00 | 47 | 1026.4 |
| 20260505034003 | 8 | 314 | 9.7 | 32.2 | 0.00 | 0.00 | 0.00 | 47 | 1026.5 |
| 20260505033720 | 8 | 311 | 8.0 | 32.2 | 0.00 | 0.00 | 0.00 | 47 | 1026.4 |
| 20260505033003 | 8 | 288 | 6.4 | 29.0 | 0.00 | 0.00 | 0.00 | 47 | 1026.4 |
| 20260505032503 | 8 | 299 | 9.7 | 29.0 | 0.00 | 0.00 | 0.00 | 47 | 1026.2 |
| 20260505032003 | 8 | 305 | 11.3 | 25.7 | 0.00 | 0.00 | 0.00 | 47 | 1026.1 |
| 20260505031503 | 8 | 301 | 11.3 | 24.1 | 0.00 | 0.00 | 0.00 | 47 | 1026.0 |
| 20260505031220 | 8 | 300 | 11.3 | 25.7 | 0.00 | 0.00 | 0.00 | 47 | 1026.0 |
| 20260505030503 | 8 | 305 | 11.3 | 25.7 | 0.00 | 0.00 | 0.00 | 47 | 1026.1 |
| 20260505030003 | 8 | 306 | 9.7 | 24.1 | 0.00 | 0.00 | 0.00 | 47 | 1025.9 |
| 20260505025503 | 8 | 299 | 9.7 | 24.1 | 0.00 | 0.00 | 0.00 | 47 | 1026.0 |
| 20260505025003 | 8 | 305 | 9.7 | 22.5 | 0.00 | 0.00 | 0.00 | 48 | 1025.9 |
| 20260505024503 | 8 | 311 | 11.3 | 24.1 | 0.00 | 0.00 | 0.00 | 48 | 1025.8 |
| 20260505024003 | 8 | 311 | 9.7 | 24.1 | 0.00 | 0.00 | 0.00 | 47 | 1025.6 |
| 20260505023503 | 8 | 307 | 9.7 | 20.9 | 0.00 | 0.00 | 0.00 | 47 | 1025.7 |
| 20260505023004 | 8 | 305 | 11.3 | 24.1 | 0.00 | 0.00 | 0.00 | 47 | 1025.6 |
| 20260505022503 | 8 | 303 | 12.9 | 32.2 | 0.00 | 0.00 | 0.00 | 47 | 1025.7 |
| 20260505022003 | 8 | 308 | 12.9 | 32.2 | 0.00 | 0.00 | 0.00 | 47 | 1025.7 |
| 20260505021503 | 8 | 307 | 12.9 | 30.6 | 0.00 | 0.00 | 0.00 | 47 | 1025.4 |
| 20260505021003 | 8 | 299 | 11.3 | 22.5 | 0.00 | 0.00 | 0.00 | 47 | 1025.3 |
| 20260505020718 | 8 | 302 | 12.9 | 30.6 | 0.00 | 0.00 | 0.00 | 47 | 1025.2 |
| 20260505020221 | 8 | 303 | 16.1 | 30.6 | 0.00 | 0.00 | 0.00 | 46 | 1025.3 |
| 20260505015503 | 8 | 300 | 12.9 | 25.7 | 0.00 | 0.00 | 0.00 | 47 | 1025.4 |
| 20260505015217 | 8 | 304 | 12.9 | 22.5 | 0.00 | 0.00 | 0.00 | 47 | 1025.5 |
| 20260505014503 | 8 | 296 | 12.9 | 22.5 | 0.00 | 0.00 | 0.00 | 47 | 1025.4 |
| 20260505014003 | 8 | 291 | 12.9 | 27.4 | 0.00 | 0.00 | 0.00 | 47 | 1025.4 |
| 20260505013503 | 8 | 295 | 12.9 | 27.4 | 0.00 | 0.00 | 0.00 | 47 | 1025.6 |
| 20260505013003 | 8 | 295 | 14.5 | 30.6 | 0.00 | 0.00 | 0.00 | 47 | 1025.5 |
| 20260505012503 | 8 | 296 | 12.9 | 30.6 | 0.00 | 0.00 | 0.00 | 46 | 1025.4 |
| 20260505012003 | 8 | 306 | 11.3 | 27.4 | 0.00 | 0.00 | 0.00 | 47 | 1025.5 |
| 20260505011504 | 8 | 308 | 9.7 | 27.4 | 0.00 | 0.00 | 0.00 | 46 | 1025.5 |
| 20260505011003 | 8 | 306 | 11.3 | 25.7 | 0.00 | 0.00 | 0.00 | 46 | 1025.5 |
| 20260505010503 | 9 | 308 | 12.9 | 25.7 | 0.00 | 0.00 | 0.00 | 46 | 1025.5 |
| 20260505010003 | 9 | 300 | 12.9 | 22.5 | 0.00 | 0.00 | 0.00 | 46 | 1025.6 |
| 20260505005503 | 9 | 299 | 9.7 | 22.5 | 0.00 | 0.00 | 0.00 | 46 | 1025.6 |
| 20260505005004 | 9 | 297 | 9.7 | 22.5 | 0.00 | 0.00 | 0.00 | 46 | 1025.6 |
| 20260505004503 | 9 | 295 | 9.7 | 22.5 | 0.00 | 0.00 | 0.00 | 46 | 1025.5 |
| 20260505004003 | 9 | 313 | 9.7 | 24.1 | 0.00 | 0.00 | 0.00 | 47 | 1025.5 |
| 20260505003503 | 9 | 314 | 9.7 | 24.1 | 0.00 | 0.00 | 0.00 | 47 | 1025.4 |
| 20260505003003 | 9 | 303 | 9.7 | 22.5 | 0.00 | 0.00 | 0.00 | 48 | 1025.6 |
| 20260505002503 | 9 | 300 | 11.3 | 24.1 | 0.00 | 0.00 | 0.00 | 49 | 1025.6 |
| 20260505002221 | 9 | 303 | 12.9 | 25.7 | 0.00 | 0.00 | 0.00 | 49 | 1025.6 |
| 20260505001503 | 9 | 307 | 12.9 | 30.6 | 0.00 | 0.00 | 0.00 | 49 | 1025.6 |
| 20260505001217 | 9 | 306 | 12.9 | 30.6 | 0.00 | 0.00 | 0.00 | 49 | 1025.8 |
| 20260505000503 | 9 | 297 | 12.9 | 27.4 | 0.00 | 0.00 | 0.00 | 49 | 1025.8 |
| 20260505000003 | 9 | 302 | 11.3 | 25.7 | 0.00 | 0.00 | 0.00 | 48 | 1025.8 |
| 20260504235503 | 10 | 306 | 11.3 | 25.7 | 0.00 | 0.00 | 0.00 | 48 | 1026.0 |
| 20260504235003 | 10 | 302 | 11.3 | 24.1 | 0.00 | 0.00 | 0.00 | 47 | 1026.0 |
| 20260504234503 | 10 | 303 | 12.9 | 25.7 | 0.00 | 0.00 | 0.00 | 48 | 1025.9 |
| 20260504234220 | 10 | 307 | 12.9 | 25.7 | 0.00 | 0.00 | 0.00 | 48 | 1026.0 |
| 20260504233503 | 10 | 301 | 6.4 | 19.3 | 0.00 | 0.00 | 0.00 | 46 | 1026.0 |
| 20260504233003 | 10 | 295 | 8.0 | 20.9 | 0.00 | 0.00 | 0.00 | 45 | 1025.9 |
| 20260504232503 | 10 | 283 | 9.7 | 32.2 | 0.00 | 0.00 | 0.00 | 45 | 1025.8 |
| 20260504232003 | 10 | 274 | 8.0 | 32.2 | 0.00 | 0.00 | 0.00 | 45 | 1025.8 |
| 20260504231719 | 10 | 292 | 9.7 | 32.2 | 0.00 | 0.00 | 0.00 | 44 | 1025.7 |
| 20260504231003 | 10 | 305 | 12.9 | 29.0 | 0.00 | 0.00 | 0.00 | 44 | 1025.8 |
| 20260504230503 | 10 | 300 | 11.3 | 27.4 | 0.00 | 0.00 | 0.00 | 43 | 1025.7 |
| 20260504230003 | 10 | 292 | 8.0 | 17.7 | 0.00 | 0.00 | 0.00 | 42 | 1025.5 |
| 20260504225503 | 10 | 294 | 6.4 | 17.7 | 0.00 | 0.00 | 0.00 | 41 | 1025.4 |
| 20260504225003 | 10 | 306 | 6.4 | 14.5 | 0.00 | 0.00 | 0.00 | 41 | 1025.4 |
| 20260504224503 | 10 | 303 | 8.0 | 16.1 | 0.00 | 0.00 | 0.00 | 42 | 1025.5 |
| 20260504224220 | 10 | 302 | 8.0 | 19.3 | 0.00 | 0.00 | 0.00 | 43 | 1025.4 |
| 20260504223503 | 10 | 305 | 6.4 | 19.3 | 0.00 | 0.00 | 0.00 | 44 | 1025.5 |
| 20260504223003 | 10 | 303 | 9.7 | 19.3 | 0.00 | 0.00 | 0.00 | 45 | 1025.6 |
| 20260504222503 | 10 | 307 | 11.3 | 24.1 | 0.00 | 0.00 | 0.00 | 45 | 1025.7 |
| 20260504222217 | 10 | 307 | 11.3 | 24.1 | 0.00 | 0.00 | 0.00 | 45 | 1025.6 |
| 20260504221503 | 10 | 294 | 11.3 | 22.5 | 0.00 | 0.00 | 0.00 | 44 | 1025.8 |
| 20260504221003 | 11 | 288 | 12.9 | 22.5 | 0.00 | 0.00 | 0.00 | 42 | 1025.7 |
| 20260504220503 | 11 | 287 | 12.9 | 35.4 | 0.00 | 0.00 | 0.00 | 39 | 1025.6 |
| 20260504220003 | 11 | 291 | 11.3 | 35.4 | 0.00 | 0.00 | 0.00 | 37 | 1025.8 |
| 20260504215503 | 11 | 310 | 8.0 | 25.7 | 0.00 | 0.00 | 0.00 | 37 | 1025.8 |
| 20260504215003 | 11 | 325 | 9.7 | 25.7 | 0.00 | 0.00 | 0.00 | 36 | 1026.0 |
| 20260504214503 | 11 | 320 | 9.7 | 25.7 | 0.00 | 0.00 | 0.00 | 35 | 1026.0 |
| 20260504214004 | 11 | 316 | 11.3 | 30.6 | 0.00 | 0.00 | 0.00 | 38 | 1026.2 |
| 20260504213503 | 11 | 315 | 14.5 | 30.6 | 0.00 | 0.00 | 0.00 | 37 | 1026.1 |
| 20260504213003 | 11 | 315 | 9.7 | 24.1 | 0.00 | 0.00 | 0.00 | 37 | 1026.1 |
| 20260504212720 | 11 | 314 | 9.7 | 25.7 | 0.00 | 0.00 | 0.00 | 36 | 1026.1 |
| 20260504212003 | 11 | 282 | 9.7 | 25.7 | 0.00 | 0.00 | 0.00 | 36 | 1026.3 |
| 20260504211503 | 11 | 261 | 9.7 | 29.0 | 0.00 | 0.00 | 0.00 | 36 | 1026.4 |
| 20260504211003 | 11 | 303 | 11.3 | 29.0 | 0.00 | 0.00 | 0.00 | 36 | 1026.2 |
| 20260504210503 | 11 | 305 | 11.3 | 32.2 | 0.00 | 0.00 | 0.00 | 37 | 1026.5 |
| 20260504210003 | 11 | 287 | 9.7 | 32.2 | 0.00 | 0.00 | 0.00 | 36 | 1026.7 |
| 20260504205503 | 11 | 304 | 8.0 | 19.3 | 0.00 | 0.00 | 0.00 | 37 | 1026.6 |
| 20260504205003 | 11 | 323 | 8.0 | 25.7 | 0.00 | 0.00 | 0.00 | 38 | 1026.7 |
| 20260504204503 | 10 | 298 | 8.0 | 25.7 | 0.00 | 0.00 | 0.00 | 37 | 1026.6 |
| 20260504204216 | 10 | 278 | 8.0 | 22.5 | 0.00 | 0.00 | 0.00 | 38 | 1026.7 |
| 20260504203503 | 10 | 266 | 9.7 | 24.1 | 0.00 | 0.00 | 0.00 | 39 | 1027.1 |
| 20260504203003 | 10 | 264 | 6.4 | 24.1 | 0.00 | 0.00 | 0.00 | 41 | 1027.3 |
| 20260504202504 | 10 | 270 | 6.4 | 29.0 | 0.00 | 0.00 | 0.00 | 43 | 1027.2 |
| 20260504202003 | 10 | 193 | 8.0 | 29.0 | 0.00 | 0.00 | 0.00 | 43 | 1027.3 |
| 20260504201503 | 10 | 145 | 6.4 | 16.1 | 0.00 | 0.00 | 0.00 | 44 | 1027.2 |
| 20260504201003 | 10 | 132 | 8.0 | 29.0 | 0.00 | 0.00 | 0.00 | 47 | 1027.3 |
| 20260504200503 | 10 | 121 | 11.3 | 29.0 | 0.00 | 0.00 | 0.00 | 46 | 1027.4 |
| 20260504200003 | 11 | 127 | 11.3 | 20.9 | 0.00 | 0.00 | 0.00 | 49 | 1027.4 |
| 20260504195503 | 11 | 128 | 9.7 | 19.3 | 0.00 | 0.00 | 0.00 | 49 | 1027.6 |
| 20260504195003 | 11 | 123 | 11.3 | 22.5 | 0.00 | 0.00 | 0.00 | 50 | 1027.5 |
| 20260504194503 | 11 | 135 | 9.7 | 22.5 | 0.00 | 0.00 | 0.00 | 54 | 1027.5 |
| 20260504194003 | 10 | 156 | 9.7 | 19.3 | 0.00 | 0.00 | 0.00 | 52 | 1027.7 |
| 20260504193503 | 11 | 200 | 9.7 | 20.9 | 0.00 | 0.00 | 0.00 | 49 | 1027.7 |
| 20260504193218 | 11 | 249 | 8.0 | 20.9 | 0.00 | 0.00 | 0.00 | 46 | 1027.8 |
| 20260504192503 | 11 | 305 | 8.0 | 20.9 | 0.00 | 0.00 | 0.00 | 38 | 1027.6 |
| 20260504192003 | 11 | 290 | 8.0 | 20.9 | 0.00 | 0.00 | 0.00 | 37 | 1027.8 |
| 20260504191717 | 11 | 289 | 9.7 | 24.1 | 0.00 | 0.00 | 0.00 | 40 | 1027.9 |
| 20260504191003 | 10 | 308 | 14.5 | 25.7 | 0.00 | 0.00 | 0.00 | 39 | 1027.8 |
| 20260504190504 | 10 | 312 | 12.9 | 24.1 | 0.00 | 0.00 | 0.00 | 42 | 1027.8 |
| 20260504190003 | 10 | 308 | 9.7 | 27.4 | 0.00 | 0.00 | 0.00 | 44 | 1027.8 |
| 20260504185503 | 10 | 301 | 12.9 | 27.4 | 0.00 | 0.00 | 0.00 | 46 | 1027.9 |
| 20260504185217 | 9 | 305 | 12.9 | 27.4 | 0.00 | 0.00 | 0.00 | 46 | 1028.0 |
| 20260504184720 | 10 | 309 | 14.5 | 35.4 | 0.00 | 0.00 | 0.00 | 46 | 1028.0 |
| 20260504184003 | 10 | 311 | 16.1 | 35.4 | 0.00 | 0.00 | 0.00 | 45 | 1028.2 |
| 20260504183503 | 10 | 300 | 11.3 | 30.6 | 0.00 | 0.00 | 0.00 | 47 | 1028.2 |
| 20260504183003 | 10 | 309 | 14.5 | 33.8 | 0.00 | 0.00 | 0.00 | 45 | 1028.3 |
| 20260504182503 | 9 | 309 | 17.7 | 59.5 | 0.00 | 0.00 | 0.00 | 45 | 1028.4 |
| 20260504182004 | 9 | 286 | 16.1 | 59.5 | 0.00 | 0.00 | 0.00 | 46 | 1028.6 |
| 20260504181503 | 10 | 270 | 16.1 | 30.6 | 0.00 | 0.00 | 0.00 | 47 | 1028.6 |
| 20260504181003 | 10 | 251 | 14.5 | 30.6 | 0.00 | 0.00 | 0.00 | 37 | 1028.3 |
| 20260504180503 | 11 | 251 | 12.9 | 27.4 | 0.00 | 0.00 | 0.00 | 35 | 1028.1 |
| 20260504180003 | 11 | 287 | 9.7 | 27.4 | 0.00 | 0.00 | 0.00 | 35 | 1028.0 |
| 20260504175719 | 11 | 283 | 8.0 | 22.5 | 0.00 | 0.00 | 0.00 | 35 | 1027.9 |
| 20260504175004 | 11 | 300 | 9.7 | 30.6 | 0.00 | 0.00 | 0.00 | 36 | 1027.9 |
| 20260504174503 | 11 | 314 | 11.3 | 30.6 | 0.00 | 0.00 | 0.00 | 35 | 1028.1 |
| 20260504174003 | 11 | 300 | 9.7 | 24.1 | 0.00 | 0.00 | 0.00 | 36 | 1028.0 |
| 20260504173503 | 11 | 278 | 8.0 | 17.7 | 0.00 | 0.00 | 0.00 | 35 | 1028.2 |
| 20260504173003 | 11 | 287 | 8.0 | 19.3 | 0.00 | 0.00 | 0.00 | 35 | 1028.3 |
| 20260504172503 | 11 | 272 | 8.0 | 19.3 | 0.00 | 0.00 | 0.00 | 36 | 1028.2 |
| 20260504172004 | 11 | 265 | 8.0 | 22.5 | 0.00 | 0.00 | 0.00 | 39 | 1028.2 |
| 20260504171503 | 11 | 273 | 9.7 | 22.5 | 0.00 | 0.00 | 0.00 | 39 | 1028.3 |
| 20260504171221 | 10 | 282 | 8.0 | 22.5 | 0.00 | 0.00 | 0.00 | 40 | 1028.3 |
| 20260504170503 | 10 | 297 | 6.4 | 22.5 | 0.00 | 0.00 | 0.00 | 40 | 1028.5 |
| 20260504170217 | 10 | 297 | 9.7 | 22.5 | 0.00 | 0.00 | 0.00 | 40 | 1028.5 |
| 20260504150503 | 7 | 300 | 8.0 | 20.9 | 0.00 | 0.00 | 0.00 | 52 | 1029.9 |
| 20260504150218 | 7 | 299 | 11.3 | 25.7 | 0.00 | 0.00 | 0.00 | 53 | 1030.0 |
| 20260504141003 | 6 | 302 | 12.9 | 24.1 | 0.00 | 0.00 | 0.00 | 57 | 1030.0 |
| 20260504140503 | 6 | 304 | 14.5 | 27.4 | 0.00 | 0.00 | 0.00 | 57 | 1030.1 |
| 20260504130503 | 6 | 316 | 16.1 | 29.0 | 0.00 | 0.00 | 0.00 | 56 | 1028.9 |
| 20260504110718 | 5 | 211 | 1.6 | 3.2 | 0.00 | 0.00 | 0.00 | 52 | 1029.0 |
| 20260504100503 | 6 | 260 | 6.4 | 20.9 | 0.00 | 0.00 | 0.00 | 45 | 1029.4 |
| 20260504082003 | 7 | 323 | 3.2 | 9.7 | 0.00 | 0.00 | 0.00 | 40 | 1029.5 |
| 20260504081503 | 7 | 316 | 3.2 | 9.7 | 0.00 | 0.00 | 0.00 | 39 | 1029.5 |
| 20260504081003 | 7 | 317 | 3.2 | 9.7 | 0.00 | 0.00 | 0.00 | 41 | 1029.6 |
| 20260504080503 | 7 | 312 | 3.2 | 9.7 | 0.00 | 0.00 | 0.00 | 39 | 1029.7 |
| 20260504080218 | 7 | 299 | 1.6 | 4.8 | 0.00 | 0.00 | 0.00 | 39 | 1029.8 |